This is the latest recevied weather packets stored in our database for station/object DB0TGO-13. If no packets are shown the sender has not sent any weather packets the latest 10 day(s).
| Time | Temp. | Humidity | Pressure | Rain* | Wind** | Luminosity | Snow |
|---|---|---|---|---|---|---|---|
| 1777714202 | 21.11° C | 38% | 1017.1 hPa | - | - | - | - |
| 1777713302 | 20.56° C | 37% | 1017.3 hPa | - | - | - | - |
| 1777712403 | 20.56° C | 37% | 1017.3 hPa | - | - | - | - |
| 1777711502 | 20° C | 39% | 1017.5 hPa | - | - | - | - |
| 1777710603 | 20° C | 39% | 1017.5 hPa | - | - | - | - |
| 1777709703 | 18.89° C | 39% | 1017.5 hPa | - | - | - | - |
| 1777708802 | 18.89° C | 39% | 1017.5 hPa | - | - | - | - |
| 1777707902 | 17.78° C | 47% | 1017.6 hPa | - | - | - | - |
| 1777707003 | 17.78° C | 47% | 1017.6 hPa | - | - | - | - |
| 1777706102 | 15.56° C | 52% | 1017.9 hPa | - | - | - | - |
| 1777705202 | 15.56° C | 52% | 1017.9 hPa | - | - | - | - |
| 1777704302 | 13.33° C | 58% | 1018 hPa | - | - | - | - |
| 1777703402 | 13.33° C | 58% | 1018 hPa | - | - | - | - |
| 1777702502 | 12.22° C | 62% | 1018.1 hPa | - | - | - | - |
| 1777701603 | 12.22° C | 62% | 1018.1 hPa | - | - | - | - |
| 1777700703 | 10.56° C | 70% | 1018.1 hPa | - | - | - | - |
| 1777699802 | 10.56° C | 70% | 1018.1 hPa | - | - | - | - |
| 1777698903 | 7.78° C | 80% | 1018.1 hPa | - | - | - | - |
| 1777698002 | 7.78° C | 80% | 1018.1 hPa | - | - | - | - |
| 1777697102 | 7.78° C | 83% | 1018 hPa | - | - | - | - |
| 1777696202 | 7.78° C | 83% | 1018 hPa | - | - | - | - |
| 1777695302 | 7.22° C | 86% | 1018.2 hPa | - | - | - | - |
| 1777694403 | 7.22° C | 86% | 1018.2 hPa | - | - | - | - |
| 1777693502 | 7.78° C | 83% | 1018.3 hPa | - | - | - | - |
| 1777692603 | 7.78° C | 83% | 1018.3 hPa | - | - | - | - |
* Rain since midnight (hover to see other rain measurements)
** Current wind speed in m/s (hover to see current wind gust speed)